Regional Weather Roundup
Issued by NWS Pendleton, OR

Home | Current Version | Previous Version | Text Only | Print | Product List | Glossary On
Versions: 1 2 3 4 5 6 7 8 9 10 11 12 13 14 15 16 17 18 19 20 21 22 23 24 25 26 27 28 29 30 31 32 33 34 35 36 37 38 39 40 41 42 43 44 45 46 47 48 49 50
575
ASUS46 KPDT 231625
RWRPDT
PENDLETON REGIONAL WEATHER ROUNDUP
NATIONAL WEATHER SERVICE PENDLETON OREGON
800 AM PST TUE JAN 23 2018

NOTE: FAIR INDICATES FEW OR NO CLOUDS BELOW 12,000 FEET WITH NO
SIGNIFICANT WEATHER AND/OR OBSTRUCTIONS TO VISIBILITY.

# INDICATES UNOFFICIAL STATION AND DATA

WAZ520-231710-
EAST SLOPES OF WASHINGTON CASCADES

CITY            SKY/WX      TMP DP  RH  WIND    PRES   REMARKS
#BULLFROG       N/A         30  29  96  CALM    N/A
#CLE ELUM HS    N/A         32  29  89  CALM    30.06F
#EASTON DOT     N/A         30  29  96  N2      N/A
#ELK HTS DOT    N/A         29  29  100 E2      N/A
#GLENWOOD       N/A         30  29  96  CALM    30.19F
#NELSON 3SW     N/A         27  26  96  CALM    30.39F
#NILE           N/A         28  27  96  CALM    29.42F
#TEANAWAY 4NE   N/A         32  30  92  CALM    N/A
#TROUT LAKE 1NE N/A         31  30  96  CALM    30.19F
#TROUT LAKE 1E  N/A         29  28  96  CALM    30.14F
$$

WAZ521-231710-
SIMCOE HIGHLANDS

CITY            SKY/WX      TMP DP  RH  WIND    PRES   REMARKS
#BICKLETON HS   N/A         32  29  89  W3      29.72F
#CENTERVILLE 1SWN/A         29  26  88  CALM    30.16F
#GOLDENDALE 1NE N/A         34  26  72  N1      N/A
#GOLDENDALE 4W  N/A         32  28  85  CALM    30.16F
#GOODNOE HILLS  N/A         34  30  85  CALM    30.05F
#LYLE 6NE       N/A         32  31  96  N3      30.18F
#PITT 4SE       N/A         32  31  96  E1      30.20F
$$

WAZ026-231710-
KITTITAS VALLEY

CITY            SKY/WX      TMP DP  RH  WIND    PRES   REMARKS
#ELLENSBURG CWU N/A         31  29  92  CALM    30.14F
#ELLENSBURG 3NE N/A         31  29  92  NE1     28.20F
#ELLENSBURG 1E  N/A         29  27  92  CALM    30.25F
#KITTITAS 3S    N/A         29  28  96  SW2     30.19F
#MANASTASH RDG  N/A         33  33  100 CALM    N/A
#ROCKY CYN DOT  N/A         30  30  100 SE1     N/A
#RYEGRASS DOT   N/A         30  26  85  CALM    N/A
$$

WAZ027-231710-
YAKIMA VALLEY

CITY            SKY/WX      TMP DP  RH  WIND    PRES   REMARKS
SUNNYSIDE AP    CLOUDY      30  29  96  CALM    30.17F
YAKIMA AIRPORT  CLOUDY      32  29  89  CALM    30.17F
YAKIMA-VAGABOND MOCLDY      31  28  88  CALM    30.13F
#DONALD 2NE     N/A         36  15  42  CALM    29.00F
#GRANDVIEW      N/A         32  28  85  CALM    30.21F
#MABTON         N/A         32  30  92  CALM    30.17F
#MOXEE 2E       N/A         31  N/A N/A E1      30.12F
#NACHES 2SW     N/A         33  30  89  E1      30.12F
#OUTLOOK DOT    N/A         33  31  92  CALM    30.14F
#PARKER DOT     N/A         36  29  75  SW1     30.15F
#TERRACE HTS    N/A         31  28  88  CALM    30.17F
#TOPPENISH      N/A         32  29  89  CALM    30.12F
#I82 S UMTANUM RN/A         33  26  75  NW2     N/A
#UNION GAP DOT  N/A         33  29  85  N1      30.20F
#W YAKIMA       N/A         31  28  88  CALM    30.20F
#WHITE SWAN 5E  N/A         31  29  92  CALM    30.20F
#WILEY CITY 3W  N/A         31  25  78  CALM    30.11F
#ZILLAH DOT     N/A         31  30  96  CALM    N/A
$$

WAZ028-231710-
LOWER COLUMBIA BASIN...WASHINGTON

CITY            SKY/WX      TMP DP  RH  WIND    PRES   REMARKS
HANFORD         CLOUDY      32  30  92  N8      30.18S
PASCO           MOCLDY      33  31  92  N6      30.19F
PROSSER AWOS    N/A         30  30  100 CALM    30.20F
RICHLAND AWOS   MOCLDY      32  31  96  CALM    30.20F
#BENTON CITY    N/A         33  30  89  CALM    30.11F
#CONNELL 5N     N/A         33  31  92  NE2     30.20F
#CONNELL 5NW    N/A         32  10  39  CALM    30.15F
#ELTOPIA 6NW    N/A         35  33  92  CALM    29.13S
#KAHLOTUS       N/A         31  29  92  S7      30.20F
#KENNEWICK 3S   N/A         35  32  89  CALM    30.19F
#PATERSON       N/A         34  32  92  E1      30.17F
#PROSSER DOT    N/A         33  31  92  CALM    30.18F
#SAGEMOOR 2W    N/A         34  31  89  CALM    30.07F
#TOUCHET 2S     N/A         31  29  92  CALM    30.17F
#WEST PASCO     N/A         34  32  92  CALM    30.20F
$$

WAZ029-231710-
FOOTHILLS OF THE BLUES...WASHINGTON

CITY            SKY/WX      TMP DP  RH  WIND    PRES   REMARKS
WALLA WALLA AP  MOCLDY      45  28  51  SE7     30.14F
#CLYDE 6NW      N/A         36  32  85  SE2     30.18F
#LOWDEN 2SE     N/A         31  29  92  CALM    30.14F
#PLEASANT VIEW 1N/A         32  29  89  CALM    30.24F
#PRESCOTT       N/A         36  32  85  CALM    30.19F
#WHITMAN COLLEGEN/A         43  31  62  CALM    30.21F
#WAITSBURG 5S   N/A         40  30  67  E8      30.27F
#WAITSBURG 6SSE N/A         40  27  59  SE1     30.00F
#WAITSBURG 8N   N/A          0  N/A N/A CALM    29.88F
#WALLA WALLA 5E N/A         43  31  62  SE12    N/A    WCI 37
#WHITMAN MISSIONN/A         33  31  92  CALM    30.19F
$$

WAZ030-231710-
BLUE MOUNTAINS...WASHINGTON

CITY            SKY/WX      TMP DP  RH  WIND    PRES   REMARKS
#DIXIE 5SE      N/A         39  25  57  E13     30.02F WCI 31
$$

ORZ009-041-WAZ024-231710-
COLUMBIA RIVER GORGE

CITY            SKY/WX      TMP DP  RH  WIND    PRES   REMARKS
HOOD RIVER AP   LGT DRIZZLE 36  36  100 N3      30.15F
THE DALLES AP   CLOUDY      38  36  92  CALM    30.18F FOG
#ARLINGTON AIRPON/A         33  32  96  W1      30.20F
#ARLINGTON HS   N/A         34  31  89  CALM    30.11F
#LYLE           N/A         38  36  92  N1      30.20F
#MARYHILL       N/A         35  N/A N/A N1      N/A
#MURDOCK        N/A         37  35  92  SE2     30.15F
#SMITHVILLE     N/A         37  36  96  E2      30.14F

$$

ORZ510-231710-
NORTH CENTRAL OREGON

CITY            SKY/WX      TMP DP  RH  WIND    PRES   REMARKS
#ANTELOPE       N/A         30  27  88  CALM    30.07S
#DUFUR          N/A         31  30  96  CALM    30.16S
#DUFUR 9E       N/A         37  30  75  S6      30.22S
#MAUPIN SCHOOL  N/A         33  29  85  CALM    30.21S
#TYGH VALLEY 2NEN/A         32  30  92  CALM    30.17F
#WAPANITIA AIRPON/A         31  29  92  CALM    30.20F
#WASCO 5NE      N/A         33  22  63  CALM    30.19F
$$

ORZ511-231710-
CENTRAL OREGON

CITY            SKY/WX      TMP DP  RH  WIND    PRES   REMARKS
BEND AIRPORT    MOCLDY      34  27  75  SW8     30.13F
PRINEVILLE AP   CLOUDY      37  27  67  SE14    30.13F WCI 28
REDMOND AIRPORT CLOUDY      36  26  67  SE8     30.11F
#ASHWOOD SCHOOL N/A         32  29  89  CALM    30.06F
#BEND 1SW       N/A         30  27  88  CALM    N/A
#BEND-AWBREY    N/A         34  29  82  S9      30.17F
#BEND-KIM LN    N/A         30  26  85  W2      30.12F
#CULVER         N/A         38  26  62  SE7     30.01F
#CULVER 8W      N/A         36  21  54  CALM    30.08F
#LAKE BILLY CHINN/A         36  N/A N/A S3      30.19F
#POWELL BUTTE   N/A         37  21  52  E12     30.03F WCI 29
#PRINEVILLE     N/A         37  28  70  CALM    30.30S
#PRINEVILLE 3N  N/A         35  29  78  E5      30.20F
#WARM SPRINGS   N/A         31  29  92  CALM    30.05S

$$


ORZ509-231710-
EAST SLOPES OF OREGON CASCADES

CITY            SKY/WX      TMP DP  RH  WIND    PRES   REMARKS
SISTERS AWOS    N/A         28  25  88  CALM    30.06F
#CAMP SHERMAN   N/A         29  26  88  CALM    30.27F
#LA PINE 4NW    N/A         28  25  88  CALM    30.29F
#SISTERS 3N     N/A         29  23  78  CALM    30.11S
#SUNRIVER       N/A         29  27  92  S1      30.23F
#TUMALO 3W      N/A         35  27  72  S10     30.04R

$$

ORZ044-231710-
LOWER COLUMBIA BASIN...OREGON

CITY            SKY/WX      TMP DP  RH  WIND    PRES   REMARKS
HERMISTON       MOCLDY      32  32  100 CALM    30.16F
#BOARDMAN SCHOOLN/A         33  31  92  CALM    30.18F
#BOARDMAN 8SW   N/A         32  30  92  SW2     30.19F
#ECHO 8SW       N/A         34  34  100 CALM    30.17F
#IONE SCHOOL    N/A         32  18  56  S1      30.20F
#UMATILLA       N/A         34  29  82  SW1     30.13S
$$

ORZ507-231710-
NORTHERN FOOTHILLS OF THE BLUES

CITY            SKY/WX      TMP DP  RH  WIND    PRES   REMARKS
PENDLETON AIRPT PTCLDY      38  29  70  E5      30.14S
#ADAMS 3WNW     N/A         37  30  75  CALM    30.17F
#ATHENA         N/A         40  29  64  S2      30.19F
#HELIX SCHOOL   N/A         36  31  82  SE6     30.18F
#HELIX 3N       N/A         37  30  75  SE12    30.14F WCI 29
#HOLDMAN 5SE    N/A         36  32  85  CALM    30.13S
#HOLDMAN 6E     N/A         36  30  79  CALM    29.98F
#M-F GROVE ELEM N/A         44  26  49  E2      30.11F
#M-FREEWATER 5SEN/A         44  29  55  E14     30.12F WCI 37
#PENDLETON DNTN N/A         32  27  82  CALM    N/A
#PDT AQUATIC CTRN/A         31  29  92  W2      30.15S
#PDT SUNRIDGE   N/A         31  29  92  CALM    30.16F
#PENDLETON 6SE  N/A         43  29  57  SE23    30.14S WCI 34
#PENDLETON 7NW  N/A         33  28  82  CALM    31.36S
#PILOT ROCK 1S  N/A         42  23  46  S2      30.13F
#PILOT ROCK     N/A         37  30  75  CALM    30.14R
#TUTUILLA       N/A         40  28  62  SE9     30.19S
#UMAPINE 2E     N/A         33  31  92  CALM    30.13F

$$

ORZ508-231710-
SOUTHERN FOOTHILLS OF THE BLUES

CITY            SKY/WX      TMP DP  RH  WIND    PRES   REMARKS
LEXINGTON       PTCLDY      34  32  92  CALM    30.31F
#AJAX           N/A         34  23  64  CALM    30.25F
#CONDON 5W      N/A         35  24  64  S5      30.06F
#FOSSIL SCHOOL  N/A         40  28  62  CALM    30.03F
#HEPPNER EOC    N/A         42  27  55  SE6     30.09F
#HEPPNER 4NE    N/A         38  27  64  SE5     30.16F
#LEXINGTON 2SE  N/A         35  30  82  CALM    30.11F
#MIKKALO        N/A         34  30  85  CALM    30.23F
#OLEX 4N        N/A         33  31  92  CALM    30.13F
#RUGGS 5NE      N/A         39  23  52  N7      30.27S
#RUGGS 2SW      N/A         37  26  64  S14G26  30.19F WCI 28

$$

ORZ502-503-231710-
BLUE MOUNTAINS

CITY            SKY/WX      TMP DP  RH  WIND    PRES   REMARKS
MEACHAM         CLOUDY      29  25  85  CALM    30.12
#GRANITE        N/A         23  18  81  CALM    29.77S
#HARDMAN 10S    N/A         26  24  92  S3      30.37F
#LONG CREEK HS  N/A         37  27  67  SE5     30.14F
#PIKES PEAK     N/A         37  21  52  SE22G30 27.99S WCI 26
#SUMMERVILLE 5NWN/A         27  25  92  CALM    28.12F
#TOLLGATE       N/A         25  24  96  W1      30.13F
#TROY SCHOOL    N/A         30  28  92  CALM    30.17F
#UKIAH          N/A         24  23  96  CALM    30.21S
#WESTON 4E      N/A         34  27  75  SE15G25 30.17F WCI 24
$$

ORZ505-231710-
JOHN DAY BASIN

CITY            SKY/WX      TMP DP  RH  WIND    PRES   REMARKS
JOHN DAY        MOCLDY      31  25  78  NE3     30.19S
#ANTELOPE 9ESE  N/A         35  30  82  E3      N/A
#DAYVILLE SCHOOLN/A         31  24  75  CALM    30.16S
#MITCHELL 8NW   N/A         36  24  61  S6      30.23F
#MONUMENT HS    N/A         29  26  88  CALM    30.14F
#MT. VERNON 5SE N/A         32  23  69  S7      30.12S
#WINLOCK        N/A         42  33  70  CALM    30.09F
$$

ORZ506-231710-
OCHOCO AND JOHN DAY HIGHLANDS

CITY            SKY/WX      TMP DP  RH  WIND    PRES   REMARKS
#IZEE 6NW       N/A         24  22  92  S3      N/A
#PINE MTN OBS   N/A         23  21  92  S12     N/A    WCI 11
#PRAIRIE CITY   N/A         23  17  77  CALM    30.35F
#SENECA         N/A         14  N/A N/A N1      N/A
#SENECA 9NW     N/A         15  13  92  CALM    30.39R
$$

ORZ049-231710-
GRANDE RONDE VALLEY

CITY            SKY/WX      TMP DP  RH  WIND    PRES   REMARKS
LA GRANDE       CLOUDY      34  27  75  S20G24  30.21F WCI 23
#COVE SCHOOL    N/A         30  27  88  CALM    30.20F
#COVE 6NW       N/A         32  28  85  CALM    30.29F
#ELGIN 3N       N/A         27  22  81  CALM    30.17F
#ELGIN 1E       N/A         28  23  81  CALM    N/A
#IMBLER SCHOOL  N/A         30  27  88  CALM    30.16F
#ISLAND CITY 4N N/A         42  41  96  CALM    30.10F
#UNION 1S       N/A         32  28  85  S10     30.31S
$$

ORZ050-231710-
WALLOWA COUNTY

CITY            SKY/WX      TMP DP  RH  WIND    PRES   REMARKS
JOSEPH AIRPORT  MOCLDY      21  19  92  CALM    30.17F
#IMNAHA SCHOOL  N/A         30  26  85  CALM    30.24F
#IMNAHA 10S     N/A         31  27  85  SW2     29.99S
#JOSEPH         N/A         24  15  68  CALM    30.30F
#JOSEPH 3N      N/A         19  14  80  CALM    30.19F
#JOSEPH 3W      N/A         N/A N/A N/A CALM    29.96F
#LOSTINE        N/A         20  18  92  CALM    30.14F
#LOSTINE 3SE    N/A         21  17  84  W2      30.22F
#MT HOWARD 8000 N/A         22  13  68  SW5     30.02S
#PROMISE 1S     N/A         26  25  96  CALM    30.40F
#WALLOWA LAKE   N/A         28  23  81  S2      30.16F
#WALLOWA SCHOOL N/A         22  21  96  CALM    30.18F



$$



USA.gov is the U.S. government's official web portal to all federal, state and local government web resources and services.